Regional Weather Roundup
Issued by NWS

Home | Current Version | Previous Version | Graphics & Text | Print | Product List | Glossary On
Versions: 1 2 3 4 5 6 7 8 9 10 11 12 13 14 15 16 17 18 19 20 21 22 23 24 25 26 27 28 29 30 31 32 33 34 35 36 37 38 39 40 41 42 43 44 45 46 47 48 49 50
000
ASUS45 KPSR 050500
RWRAZ

ARIZONA REGIONAL HOURLY WEATHER ROUNDUP
NATIONAL WEATHER SERVICE PHOENIX AZ
1000 PM MST MON MAY 04 2015

NOTE: FAIR INDICATES FEW OR NO CLOUDS BELOW 12,000 FEET WITH NO
SIGNIFICANT WEATHER AND/OR OBSTRUCTIONS TO VISIBILITY.

AZZ001>003-036-050600-
NORTHWEST ARIZONA

CITY           SKY/WX    TMP DP  RH WIND       PRES   REMARKS
KINGMAN        CLOUDY    59  45  59 E8        29.92R
$$

AZZ004>008-015-016-018-050600-
NORTH CENTRAL ARIZONA

CITY           SKY/WX    TMP DP  RH WIND       PRES   REMARKS
GRAND CANYON   CLOUDY    40  38  93 CALM      30.02R
WILLIAMS       MOCLDY    45  41  87 CALM      30.08F
PRESCOTT       CLOUDY    52  41  66 SW9       29.99R
FLAGSTAFF      NOT AVBL
PAYSON         CLOUDY    54  45  71 E6        30.01R
PAGE           LGT RAIN  62  48  60 SW5       29.91R
$$

AZZ009>014-017-050600-
NORTHEAST ARIZONA

CITY           SKY/WX    TMP DP  RH WIND       PRES   REMARKS
WINSLOW        NOT AVBL
SAINT JOHNS    LGT RAIN  47  41  80 SW10      30.04R
WINDOW ROCK    CLOUDY    48  43  82 S6        30.04S
SHOW LOW       CLOUDY    41  39  93 E7        30.04F
$$

AZZ023-050600-
GREATER PHOENIX AREA

CITY           SKY/WX    TMP DP  RH WIND       PRES   REMARKS
PHOENIX        CLOUDY    71  49  45 W10       29.85S
DEER VALLEY    LGT RAIN  68  51  54 NW5       29.88R
SCOTTSDALE     CLOUDY    70  48  45 W8        29.89R
MESA-GATEWAY   PTCLDY    70  48  46 NW5       29.89S
$$

AZZ027-028-050600-
SOUTHWEST MARICOPA COUNTY AND PINAL COUNTY

CITY           SKY/WX    TMP DP  RH WIND       PRES   REMARKS
CASA GRANDE    CLOUDY    66  46  48 W8        29.88R
$$

AZZ503-504-507>509-050600-
SOUTHEAST ARIZONA

CITY           SKY/WX    TMP DP  RH WIND       PRES   REMARKS
TUCSON         CLOUDY    65  47  52 NW10      29.96R
NOGALES        PTCLDY    64  48  56 W12       29.98R
SAFFORD        MOCLDY    57  51  80 NW14      29.93R
$$

AZZ020-021-025-026-031-050600-
SOUTHWEST ARIZONA

CITY           SKY/WX    TMP DP  RH WIND       PRES   REMARKS
YUMA           MOCLDY    75  50  41 E10       29.83R
$$

CAZ031-033-041-043-047-048-061-050600-
SOUTHERN CALIFORNIA

CITY           SKY/WX    TMP DP  RH WIND       PRES   REMARKS
DOWNTOWN L.A.  CLEAR     58  49  72 CALM      29.98R
L.A. AIRPORT   CLEAR     57  50  77 SW9       29.98R
SAN DIEGO      PTCLDY    62  50  64 NW6       30.02R
BURBANK        CLEAR     58  48  69 SE8       29.96R
ONTARIO        PTCLDY    58  48  69 W6        29.98R
RIVERSIDE      CLEAR     59  49  69 VRB6      29.98R
PALM SPRINGS   CLEAR     77  39  25 NW18      29.80R
EL CENTRO NAS  PTCLDY    72  47  40 W22       29.83R
IMPERIAL       CLEAR     71  48  43 W16G26    29.81R
BLYTHE         LGT RAIN  64  59  83 E18G28    29.87F
$$

NVZ020-UTZ003-050600-
SOUTHERN NEVADA-UTAH

CITY           SKY/WX    TMP DP  RH WIND       PRES   REMARKS
LAS VEGAS      NOT AVBL
SALT LAKE CITY MOCLDY    64  43  46 SE5       29.87R
$$

NMZ009-TXZ055-050600-
NEW MEXICO-WEST TEXAS

CITY           SKY/WX    TMP DP  RH WIND       PRES   REMARKS
ALBUQUERQUE    CLOUDY    56  49  77 W16       30.00R
EL PASO        TSTM      68  55  63 VRB3      29.90R
$$


........................KEY........................
SKY/WX - SKY CONDITION/WEATHER
TMP    - TEMPERATURE IN FAHRENHEIT
DP     - DEW POINT IN FAHRENHEIT
RH     - RELATIVE HUMIDITY IN PERCENT
WIND   - DIRECTION AND SPEED IN MILES PER HOUR (MPH)
VRB    - VARIABLE WIND DIRECTION
PRES   - MEAN SEA LEVEL PRESSURE IN INCHES OF MERCURY
         F - FALLING PRESSURE   R - RISING PRESSURE
         S - STEADY PRESSURE
VSB    - VISIBILITY IN MILES
HX     - HEAT INDEX IN FAHRENHEIT
WCI    - WIND CHILL INDEX IN FAHRENHEIT
TC     - TEMPERATURE IN CELSIUS WHICH IS ALSO KNOWN AS
         TEMPERATURE IN CENTIGRADE
AFB    - AIR FORCE BASE
         LUKE AFB IS LUKE AIR FORCE BASE
         DAVIS-MONTHAN IS DAVIS-MONTHAN AIR FORCE BASE
NAS    - NAVAL AIR STATION
         EL CENTRO NAS IS EL CENTRO NAVAL AIR STATION
N/A    - NOT AVAILABLE



USA.gov is the U.S. government's official web portal to all federal, state and local government web resources and services.